Weather reports worldwide

Advertisment
Carlisle, United Kingdom (3220): temperature & dewpoint: 17.09.2020 06:00:00 - 23.09.2020 06:00:00 (BST)Carlisle, United Kingdom (3220): temperature -100cm: 17.09.2020 06:00:00 - 23.09.2020 06:00:00 (BST)Carlisle, United Kingdom (3220): reduced air pressure: 17.09.2020 06:00:00 - 23.09.2020 06:00:00 (BST)Carlisle, United Kingdom (3220): visibility: 17.09.2020 06:00:00 - 23.09.2020 06:00:00 (BST)Carlisle, United Kingdom (3220): precipitation: 17.09.2020 06:00:00 - 23.09.2020 06:00:00 (BST)
Date & Time tt [°C] td [°C] tt -100cm [°C] ppp [hPa] vv [km] rr [mm]
23.09.2020 06:00:00 9,9 8,9 - 999,9 40 -
23.09.2020 05:00:00 10,5 9,5 - 999,8 45 0,0
23.09.2020 04:00:00 11,1 10,5 - 999,6 50 0,0
23.09.2020 03:00:00 11,6 11,0 - 999,9 40 0,2
23.09.2020 02:00:00 12,2 11,6 - 999,8 5 0,8
23.09.2020 01:00:00 13,1 12,3 - 999,4 8 0,8
23.09.2020 00:00:00 13,5 12,9 - 999,1 26 0,2
22.09.2020 23:00:00 13,6 13,0 - 998,9 5 5,0
22.09.2020 22:00:00 14,2 13,2 - 999,1 10 0,2
22.09.2020 21:00:00 15,2 12,8 - 999,6 11 0,0
22.09.2020 20:00:00 15,2 12,6 - 999,7 35 0,0
22.09.2020 19:00:00 15,2 12,3 - 1000,3 30 0,0
22.09.2020 18:00:00 14,7 12,4 - 1001,1 27 0,0
22.09.2020 17:00:00 15,0 11,7 - 1001,6 22 0,0
22.09.2020 16:00:00 14,5 12,0 - 1002,5 26 0,0
22.09.2020 15:00:00 13,7 12,9 - 1003,4 4,0 0,0
22.09.2020 14:00:00 14,8 12,8 - 1003,7 9 0,0
22.09.2020 13:00:00 15,3 13,2 - 1004,0 15 0,0
22.09.2020 12:00:00 16,1 13,4 - 1004,2 14 0,0
22.09.2020 11:00:00 16,9 13,2 - 1004,6 15 0,0
22.09.2020 10:00:00 16,1 12,8 14,9 1005,4 19 0,0
22.09.2020 09:00:00 14,9 12,5 - 1006,1 12 0,0
22.09.2020 08:00:00 14,4 12,3 - 1006,6 13 0,0
22.09.2020 07:00:00 13,4 11,2 - 1007,2 10 0,0
22.09.2020 06:00:00 14,2 12,3 - 1008,4 8 0,0
22.09.2020 05:00:00 14,3 12,2 - 1009,3 9 0,0
22.09.2020 04:00:00 14,3 11,4 - 1010,2 17 0,0
22.09.2020 03:00:00 12,9 10,8 - 1011,3 12 0,0
22.09.2020 02:00:00 12,8 10,6 - 1012,3 13 0,0
22.09.2020 01:00:00 12,7 10,7 - 1012,7 13 0,0
22.09.2020 00:00:00 12,8 10,6 - 1013,4 13 0,0
21.09.2020 23:00:00 13,1 10,2 - 1013,9 16 0,0
21.09.2020 22:00:00 13,3 10,0 - 1014,5 18 0,0
21.09.2020 21:00:00 13,4 10,2 - 1014,8 19 0,0
21.09.2020 20:00:00 13,7 10,8 - 1014,6 17 0,0
21.09.2020 19:00:00 13,8 11,4 - 1014,6 13 0,0
21.09.2020 18:00:00 14,4 12,1 - 1014,8 14 0,0
21.09.2020 17:00:00 16,1 11,8 - 1015,0 30 0,0
21.09.2020 16:00:00 16,4 12,0 - 1015,4 30 0,0
21.09.2020 15:00:00 16,6 11,6 - 1015,9 30 0,0
21.09.2020 14:00:00 16,6 11,7 - 1016,2 26 0,0
21.09.2020 13:00:00 16,4 11,5 - 1016,4 26 0,0
21.09.2020 12:00:00 14,5 11,4 - 1016,8 20 0,0
21.09.2020 11:00:00 12,9 10,2 - 1017,1 19 0,0
21.09.2020 10:00:00 11,6 9,0 - 1017,6 22 0,0
21.09.2020 09:00:00 8,4 7,6 - 1017,8 22 0,0
21.09.2020 08:00:00 6,4 5,7 - 1017,7 15 0,0
21.09.2020 07:00:00 6,3 5,2 - 1017,7 16 0,0
21.09.2020 06:00:00 8,2 6,9 - 1018,1 30 0,0
21.09.2020 05:00:00 8,5 7,4 - 1018,2 30 0,0
21.09.2020 04:00:00 8,5 7,3 - 1018,8 30 0,0
21.09.2020 03:00:00 8,6 7,5 - 1019,6 30 0,0
21.09.2020 02:00:00 8,6 7,5 - 1020,2 29 0,0
21.09.2020 01:00:00 8,2 7,2 - 1020,6 27 0,0
21.09.2020 00:00:00 8,9 7,6 - 1020,6 30 0,0
20.09.2020 23:00:00 9,4 8,0 - 1021,1 30 0,0
20.09.2020 22:00:00 10,0 8,6 - 1021,4 40 0,0
20.09.2020 21:00:00 11,1 9,4 - 1021,4 45 0,0
20.09.2020 20:00:00 12,5 10,2 - 1021,5 55 0,0
20.09.2020 19:00:00 14,1 10,6 - 1021,5 55 0,0
20.09.2020 18:00:00 15,7 11,3 - 1021,4 60 0,0
20.09.2020 17:00:00 16,5 11,6 - 1021,7 55 0,0
20.09.2020 16:00:00 16,6 11,6 - 1022,3 65 0,0
20.09.2020 15:00:00 16,9 11,8 - 1022,5 65 0,0
20.09.2020 14:00:00 16,6 11,5 - 1022,8 70 0,0
20.09.2020 13:00:00 16,0 11,4 - 1023,2 70 0,0
20.09.2020 12:00:00 15,1 11,1 - 1024,1 70 0,0
20.09.2020 11:00:00 15,0 11,1 - 1024,7 75 0,0
20.09.2020 10:00:00 14,3 10,8 - 1024,6 75 0,0
20.09.2020 09:00:00 13,1 11,6 - 1024,1 70 0,0
20.09.2020 08:00:00 11,4 10,3 - 1024,1 65 0,0
20.09.2020 07:00:00 11,7 10,6 - 1024,2 70 0,0
20.09.2020 06:00:00 12,2 10,7 - 1023,8 75 0,0
20.09.2020 05:00:00 12,3 11,6 - 1024,0 19 0,0
20.09.2020 04:00:00 12,4 11,7 - 1024,5 17 0,0
20.09.2020 03:00:00 12,4 11,5 - 1024,7 45 0,0
20.09.2020 02:00:00 12,2 11,1 - 1024,6 50 0,0
20.09.2020 01:00:00 12,4 11,3 - 1025,0 40 0,0
20.09.2020 00:00:00 12,7 10,4 - 1025,0 30 0,0
19.09.2020 23:00:00 12,8 10,0 - 1025,2 45 0,0
19.09.2020 22:00:00 13,1 10,0 - 1024,8 40 0,0
19.09.2020 21:00:00 13,0 10,0 - 1024,3 35 0,0
19.09.2020 20:00:00 12,7 9,4 - 1024,0 27 0,0
19.09.2020 19:00:00 14,1 9,6 - 1023,9 40 0,0
19.09.2020 18:00:00 15,6 9,4 - 1023,7 45 0,0
19.09.2020 17:00:00 16,4 9,5 - 1023,8 45 0,0
19.09.2020 16:00:00 17,0 8,7 - 1023,8 45 0,0
19.09.2020 15:00:00 16,7 8,2 - 1023,9 75 0,0
19.09.2020 14:00:00 16,6 9,1 - 1024,4 50 0,0
19.09.2020 13:00:00 15,8 9,0 - 1025,3 45 0,0
19.09.2020 12:00:00 14,9 8,3 - 1025,7 45 0,0
19.09.2020 11:00:00 13,3 8,4 - 1026,0 45 0,0
19.09.2020 10:00:00 12,5 8,3 15,0 1026,1 45 0,0
19.09.2020 09:00:00 10,8 7,8 - 1025,8 45 0,0
19.09.2020 08:00:00 9,5 7,0 - 1025,6 40 0,0
19.09.2020 07:00:00 8,4 6,4 - 1025,3 40 0,0
19.09.2020 06:00:00 9,5 7,4 - 1025,1 45 0,0
19.09.2020 05:00:00 8,1 6,3 - 1025,4 40 0,0
19.09.2020 04:00:00 9,2 7,3 - 1025,9 40 0,0
19.09.2020 03:00:00 10,1 8,3 - 1026,4 40 0,0
19.09.2020 02:00:00 9,9 8,3 - 1026,8 40 0,0
19.09.2020 01:00:00 9,9 8,5 - 1027,1 40 0,0
19.09.2020 00:00:00 10,2 8,5 - 1027,2 40 0,0
18.09.2020 23:00:00 10,1 8,2 - 1027,0 40 0,0
18.09.2020 22:00:00 10,2 7,8 - 1027,1 40 0,0
18.09.2020 21:00:00 10,8 8,0 - 1027,1 45 0,0
18.09.2020 20:00:00 11,9 8,4 - 1027,2 45 0,0
18.09.2020 19:00:00 13,5 8,8 - 1026,8 45 0,0
18.09.2020 18:00:00 14,6 8,9 - 1026,8 40 0,0
18.09.2020 17:00:00 15,9 8,6 - 1026,9 50 0,0
18.09.2020 16:00:00 17,1 8,6 - 1027,1 40 0,0
18.09.2020 15:00:00 17,5 9,9 - 1027,4 45 0,0
18.09.2020 14:00:00 17,1 9,7 - 1027,5 40 0,0
18.09.2020 13:00:00 17,0 9,5 - 1027,9 40 0,0
18.09.2020 12:00:00 15,4 9,4 - 1028,3 50 0,0
18.09.2020 11:00:00 12,2 8,3 - 1029,1 45 0,0
18.09.2020 10:00:00 11,6 8,6 15,2 1029,3 45 0,0
18.09.2020 09:00:00 8,9 7,2 - 1029,3 40 0,0
18.09.2020 08:00:00 7,2 6,1 - 1029,0 35 0,0
18.09.2020 07:00:00 6,6 5,5 - 1028,9 30 0,0
18.09.2020 06:00:00 7,5 6,6 - 1028,6 30 0,0
18.09.2020 05:00:00 8,1 7,3 - 1028,5 29 0,0
18.09.2020 04:00:00 8,0 7,2 - 1028,9 17 0,0
18.09.2020 03:00:00 8,9 7,9 - 1029,0 21 0,0
18.09.2020 02:00:00 9,0 7,8 - 1029,1 21 0,0
18.09.2020 01:00:00 9,7 8,2 - 1029,4 26 0,0
18.09.2020 00:00:00 10,7 8,6 - 1029,7 28 0,0
17.09.2020 23:00:00 11,2 8,2 - 1029,6 30 0,0
17.09.2020 22:00:00 11,9 8,6 - 1029,6 35 0,0
17.09.2020 21:00:00 13,7 9,5 - 1029,3 40 0,0
17.09.2020 20:00:00 15,0 10,0 - 1028,9 40 0,0
17.09.2020 19:00:00 17,1 9,6 - 1028,7 45 0,0
17.09.2020 18:00:00 19,2 10,3 - 1028,8 40 0,0
17.09.2020 17:00:00 19,8 9,2 - 1029,2 45 0,0
17.09.2020 16:00:00 19,9 8,1 - 1029,4 60 0,0
17.09.2020 15:00:00 19,5 7,3 - 1029,6 50 0,0
17.09.2020 14:00:00 18,1 10,3 - 1030,4 35 0,0
17.09.2020 13:00:00 16,7 9,4 - 1031,0 27 0,0
17.09.2020 12:00:00 15,9 9,6 - 1031,1 40 0,0
17.09.2020 11:00:00 14,7 8,8 - 1031,3 35 0,0
17.09.2020 10:00:00 12,9 9,0 15,0 1031,7 30 0,0
17.09.2020 09:00:00 10,4 8,1 - 1031,8 30 0,0
17.09.2020 08:00:00 9,0 7,0 - 1032,3 30 0,0
17.09.2020 07:00:00 8,9 7,3 - 1032,4 30 0,0
17.09.2020 06:00:00 8,9 7,1 - 1032,0 30 0,0

tt = temperature
td = dewpoint
tt -100cm = temperature -100cm
ppp = reduced air pressure
vv = visibility
rr = precipitation

Next stations